Regional Weather Roundup
Issued by NWS Lake Charles, LA

Home | Current Version | Previous Version | Text Only | Print | Product List | Glossary On
Versions: 1 2 3 4 5 6 7 8 9 10 11 12 13 14 15 16 17 18 19 20 21 22 23 24 25 26 27
000
ASUS44 KLCH 141910
RWRLCH
REGIONAL WEATHER ROUNDUP
NATIONAL WEATHER SERVICE LAKE CHARLES LA
100 PM CST THU DEC 14 2017

Note: "fair" indicates few or no clouds below 12,000 feet with no
significant weather and/or obstructions to visibility.


ACROSS SOUTHEAST TEXAS

CITY           SKY/WX    TMP DP  RH WIND       PRES   REMARKS
BEAUMONT       PTSUNNY   64  44  48 S5        29.97F
BEAUMONT CITY  FAIR      64  44  49 SW5       29.98F
ORANGE         CLOUDY    64  45  50 SW5       30.00S
JASPER         CLOUDY    57  45  62 CALM      29.99F
$$

ACROSS CENTRAL LOUISIANA

CITY           SKY/WX    TMP DP  RH WIND       PRES   REMARKS
LEESVILLE      CLOUDY    55  41  57 NW3       29.96F
FULLERTON      FAIR      57  42  57 CALM      29.94F
ALEXANDRIA INT CLOUDY    54  39  57 NW3       29.97F
ESLER FIELD    CLOUDY    55  41  59 CALM      29.98F
DERIDDER       FAIR      57  39  51 CALM      29.99F
OAKDALE        CLOUDY    60  43  53 CALM      29.97F
OPELOUSAS      NOT AVBL
$$

ACROSS SOUTHWEST AND SOUTH CENTRAL LOUISIANA

CITY           SKY/WX    TMP DP  RH WIND       PRES   REMARKS
SULPHUR        CLOUDY    64  43  47 S6        29.99S
LAKE CHARLES   CLOUDY    63  43  48 SW5       29.98F
CHENNAULT INT  NOT AVBL
CAMERON PHI    CLEAR     61  50  67 S6        29.99F
DEQUINCY       FAIR      58  44  58 CALM      29.99S
JENNINGS       FAIR      62  44  51 S6        29.98F
LAFAYETTE      CLOUDY    65  43  44 W5        29.98F
NEW IBERIA     CLOUDY    65  41  41 SW6       29.99F
ABBEVILLE      FAIR      65  43  45 SW6       29.99F
PATTERSON      CLOUDY    63  41  44 CALM      30.00F
SALT POINT       N/A     59  49  69 CALM      29.99F
$$

SELECTED SITES ACROSS THE REGION

CITY           SKY/WX    TMP DP  RH WIND       PRES   REMARKS
HOUSTON BUSH   CLOUDY    63  42  46 W5        29.97F
HOUSTON HOBBY  CLOUDY    63  45  51 CALM      29.96F
GALVESTON      CLOUDY    65  48  54 S3        29.98F
COLLEGE STAT   CLOUDY    61  37  41 CALM      29.97F
CONROE         CLOUDY    58  45  62 S3        29.97F
HUNTSVILLE     CLOUDY    57  42  57 CALM      29.97S
LUFKIN         SUNNY     60  39  45 CALM      29.96F
SHREVEPORT     CLOUDY    59  33  37 NE5       29.98F
MONROE         PTSUNNY   56  35  45 VRB6      30.00F
NATCHEZ MS     PTSUNNY   55  38  52 S5        29.97F
BATON ROUGE    CLOUDY    62  40  44 SW7       29.98F
N.O. INTL ARPT CLOUDY    64  43  46 CALM      29.99F
SLIDELL        CLOUDY    63  40  42 CALM      29.98F
$$

MARINE REPORTS

STATION/POSITION TIME  SKY/WX   TEMP    WIND        PRES    VSBY
                                AIR SEA DIR/SP/G
                 (UTC)          (F)     (DEG/KT/KT) (MB)    (MI)
BUOY 30 S HIGH I 1750            61 61  110/  4/  4 1015.4
WVE H/P(F/S)=  1

SEA RIM ST PARK  1900            61     150/  5/  6 1015.3F
PORT ARTHUR      1848            63 57  260/  4/  6 1015.4F
SABINE PASS N    1848            61 59  150/  5/  7 1016.8F
TEXAS POINT      NOT AVBL
CALCASIEU PASS   1848            59 56  210/  5/  6 1014.2F
LK CHARLES BEACH 1848            62 57              1014.8F
MARSH ISLAND     1800            56                   N/A
FRESH WATER LOCK 1848            60 58  120/  5/  6 1015.5F
AMERADA PASS     1848            60 52     CALM     1015.7F
$$




USA.gov is the U.S. government's official web portal to all federal, state and local government web resources and services.